CYGW

Kuujjuarapik Airport

ICAO Code CYGW
IATA Code YGW
Name Kuujjuarapik Airport
Location Kuujjuarapik, Quebec, CA
Elevation 40 Feet / 12.2 Meters
Latitude 55.28194444
Longitude -77.76527778
METAR CYGW 260500Z AUTO 33005KT 310V020 9SM OVC018 02/01 A3033 RMK SLP272
Extra information Display Charts and CFS
Display NOTAMS
Runway Length Width Surface Elevation
03 5082 ft 150 ft GRAVEL 39 ft
21 5082 ft 150 ft GRAVEL 33 ft

Mandatory Routes

Kuujjuarapik Airport

Direction Destination Level Remark Type Route
DEP TO CYUL H RNAV OBRET